Home > Weather > Windhoek > Past weeks

Flag for Namibia Weather for the Past 2 Weeks in Windhoek, Namibia

Now
66 °F

Mild.


Feels Like: 66 °F
Forecast: 61 / 90 °F
Wind: 2 mph from Southeast

Location: Windhoek

Current Time: Feb 13, 2016 at 4:44:27 AM

Latest Report: Feb 13, 2016 at 4:00 AM


Visibility: N/A

Pressure: 30.09 "Hg (24.72 "Hg at 1680m altitude)

Humidity: 46%

Dew point: 45 °F

Location of WindhoekLocation

Historic Weather in Windhoek — Graph

°F

Windhoek Temperature Yesterday

Maximum temperature yesterday: 93 °F (at 1:00 PM)
Minimum temperature yesterday: 70 °F (at 7:00 AM)
Average temperature yesterday: 82 °F

High & Low Weather Summary for the Past Weeks

 TemperatureHumidityPressure
High95 °F (Feb 9, 4:00 PM)94% (Jan 29, 10:00 PM)30.33 "Hg (Jan 29, 10:00 PM)
Low61 °F (Jan 30, 3:00 AM)13% (Feb 10, 4:00 PM)30.01 "Hg (Feb 9, 5:00 AM)
Average77 °F38%30.16 "Hg
* Reported Jan 29 3:00 AM — Feb 13 3:00 AM, Windhoek, Weather by CustomWeather, © 2016

Note: Actual official high and low records may vary slightly from our data, if they occured in-between our weather recording intervals... More about our weather records

Advertising

Windhoek Weather History for the Previous 24 Hours

 ConditionsComfort  
Time TempWeatherWind HumidityBarometerVisibility
3:00 AM
Sat, Feb 13
68 °FMild.1 mph43%30.09 "HgN/A
2:00 AM68 °FMild.1 mph46%30.12 "HgN/A
1:00 AM68 °FMild.2 mph46%30.12 "HgN/A
12:00 AM72 °FMild.2 mph36%30.12 "HgN/A
11:00 PM
Fri, Feb 12
73 °FMild.3 mph33%30.12 "HgN/A
10:00 PM75 °FMild.7 mph31%30.12 "HgN/A
9:00 PM79 °FPleasantly warm.5 mph24%30.12 "HgN/A
8:00 PM81 °FScattered showers. Passing clouds.7 mph21%30.09 "HgN/A
7:00 PM86 °FScattered showers. Scattered clouds.3 mph19%30.07 "HgN/A
6:00 PM90 °FScattered showers. Passing clouds.5 mph17%30.04 "HgN/A
5:00 PM91 °FScattered clouds.2 mph18%30.04 "HgN/A
4:00 PM88 °FPartly sunny.7 mph21%30.07 "HgN/A
3:00 PM93 °FPartly sunny.3 mph16%30.07 "HgN/A
2:00 PM93 °FPartly sunny.3 mph17%30.09 "HgN/A
1:00 PM93 °FPartly sunny.6 mph15%30.12 "HgN/A
12:00 PM91 °FPassing clouds.5 mph17%30.12 "HgN/A
11:00 AM88 °FSunny.5 mph17%30.12 "Hg10 mi
10:00 AM82 °FSunny.7 mph16%30.12 "Hg10 mi
9:00 AM79 °FSunny.2 mph18%30.12 "Hg10 mi
8:00 AM75 °FSunny.3 mph21%30.12 "Hg10 mi
7:00 AM70 °FSunny.5 mph21%30.12 "Hg10 mi
6:00 AM72 °FClear.7 mph20%30.12 "Hg10 mi
Weather by CustomWeather, © 2016

See weather overviewHow to use our weather pages